Home > Weather > Taiohae > Past weeks

Flag for French Polynesia Past Weather in Taiohae, Marquesas Islands, French Polynesia — Yesterday and Last 2 Weeks

Now
80 °F

Warm.


Feels Like: 83 °F
Forecast: 79 / 83 °F
Wind: 14 mph from East

Location: Atuona

Current Time: Jul 29, 2016 at 11:45:38 PM

Latest Report: Jul 29, 2016 at 10:30 PM


Visibility: N/A

Pressure: 29.94 "Hg

Humidity: 68%

Dew Point: 69 °F

Location of TaiohaeLocation

Past Weather in Taiohae — Graph

°F

Taiohae Temperature Yesterday

Maximum temperature yesterday: 85 °F (at 12:30 PM)
Minimum temperature yesterday: 72 °F (at 1:30 AM)
Average temperature yesterday: 79 °F

High & Low Weather Summary for the Past Weeks

 TemperatureHumidityPressure
High88 °F (Jul 15, 10:30 AM)93% (Jul 21, 2:30 AM)29.99 "Hg (Jul 21, 2:30 AM)
Low72 °F (Jul 25, 4:30 AM)56% (Jul 24, 1:30 PM)29.80 "Hg (Jul 27, 3:30 PM)
Average79 °F76%29.89 "Hg
* Reported Jul 14 10:30 PM — Jul 29 10:30 PM, Taiohae, Weather by CustomWeather, © 2016

Note: Actual official high and low records may vary slightly from our data, if they occured in-between our weather recording intervals... More about our weather records

Advertising

Taiohae Weather History for the Previous 24 Hours

Scroll right to see more
 ConditionsComfort  
Time TempWeatherWind HumidityBarometerVisibility
10:30 PM
Fri, Jul 29
80 °FWarm.14 mph68%29.94 "HgN/A
9:30 PM79 °FWarm.12 mph72%29.94 "HgN/A
8:30 PM79 °FWarm.9 mph72%29.93 "HgN/A
7:30 PM80 °FWarm.8 mph71%29.92 "HgN/A
6:30 PM80 °FWarm.7 mph69%29.89 "HgN/A
5:30 PM80 °FWarm.6 mph69%29.87 "HgN/A
4:30 PM81 °FPartly sunny.16 mph66%29.86 "Hg19 mi
3:30 PM81 °FPartly sunny.14 mph67%29.85 "Hg19 mi
2:30 PM81 °FOvercast.15 mph72%29.86 "Hg5 mi
1:30 PM82 °FOvercast.14 mph71%29.87 "Hg3 mi
12:30 PM82 °FWarm.10 mph75%29.89 "HgN/A
11:30 AM79 °FWarm.3 mph79%29.92 "HgN/A
10:30 AM76 °FSprinkles. Low clouds.15 mph84%29.96 "Hg1 mi
9:30 AM80 °FOvercast.15 mph75%29.95 "Hg6 mi
8:30 AM79 °FOvercast.12 mph81%29.94 "Hg5 mi
7:30 AM82 °FScattered clouds.14 mph72%29.92 "Hg19 mi
6:30 AM80 °FScattered clouds.14 mph74%29.90 "Hg19 mi
5:30 AM80 °FPassing clouds.14 mph75%29.88 "Hg19 mi
4:30 AM80 °FWarm.12 mph71%29.85 "HgN/A
3:30 AM80 °FWarm.14 mph72%29.85 "HgN/A
2:30 AM80 °FWarm.15 mph72%29.85 "HgN/A
1:30 AM80 °FWarm.12 mph73%29.87 "HgN/A
12:30 AM80 °FWarm.13 mph75%29.88 "HgN/A
11:30 PM
Thu, Jul 28
80 °FWarm.10 mph75%29.89 "HgN/A
Weather by CustomWeather, © 2016

See weather overviewHow to use our weather pages